SUPERBIRD-C2

Last updated on Oct. 31, 2020, 5:53 a.m. UTC

1 33274U 08038A   20304.59910713 -.00000247  00000-0  00000-0 0  9996
2 33274   0.0106 199.0167 0002251  38.0849 161.9083  1.00270443 85117
UTC
Height (km)
Latitude
Longitude
Inclination
Orbital Period
UTC large
Height (km)
Speed (km/s)
/
Latitude / Longitude
Inclination (degrees)
Orbital Period (minutes)
Azimuth
Elevation
Range (km)
Doppler Factor
iOS Compass Heading
iOS Angle

Next 30 passes for location: Hong Kong

Rise time Rise Azimuth (degrees) Set time Set Azimuth (degrees) Duration Max altitude (degrees)

No matching passes for this satellites